KA2FNK Weather Reports


time (UTC)temp
C
wind
direction
speed
KPH
gust
KPH
rain 1hr
cm
rain 24hr
cm
rain mn
cm
humidity
%
barometer
mb
20260505041641 21 5 0.0 4.8 0.00 0.00 0.00 65 1003.5
20260505041140 21 338 0.0 6.4 0.00 0.00 0.00 65 1003.5
20260505040639 21 327 1.6 6.4 0.00 0.00 0.00 66 1003.6
20260505040138 21 191 0.0 1.6 0.00 0.00 0.00 66 1003.3
20260505035637 22 154 0.0 9.7 0.00 0.00 0.00 64 1003.0
20260505035136 22 111 0.0 12.9 0.00 0.00 0.00 64 1003.0
20260505034635 22 203 6.4 16.1 0.00 0.00 0.00 64 1003.0
20260505034134 22 82 0.0 9.7 0.00 0.00 0.00 64 1003.0
20260505033633 22 196 0.0 9.7 0.00 0.00 0.00 64 1003.0
20260505033132 21 191 1.6 8.0 0.00 0.00 0.00 64 1003.0
20260505032631 21 136 0.0 0.0 0.00 0.00 0.00 63 1003.1
20260505032130 21 136 0.0 6.4 0.00 0.00 0.00 62 1002.9
20260505031629 21 184 0.0 0.0 0.00 0.00 0.00 63 1002.9
20260505031128 21 240 0.0 1.6 0.00 0.00 0.00 62 1002.8
20260505030627 21 240 0.0 0.0 0.00 0.00 0.00 62 1002.8
20260505030126 21 240 0.0 0.0 0.00 0.00 0.00 61 1002.7
20260505025625 21 240 0.0 0.0 0.00 0.00 0.00 61 1002.7
20260505025124 21 240 0.0 0.0 0.00 0.00 0.00 61 1002.7
20260505024623 21 240 0.0 0.0 0.00 0.00 0.00 61 1002.6
20260505024122 21 240 0.0 0.0 0.00 0.00 0.00 61 1002.5
20260505023621 21 240 0.0 0.0 0.00 0.00 0.00 60 1002.5
20260505023120 21 240 0.0 0.0 0.00 0.00 0.00 60 1002.5
20260505022619 21 240 0.0 0.0 0.00 0.00 0.00 60 1002.3
20260505022118 21 240 0.0 0.0 0.00 0.00 0.00 60 1002.2
20260505021617 21 240 0.0 0.0 0.00 0.00 0.00 59 1002.1
20260505021116 21 240 0.0 0.0 0.00 0.00 0.00 59 1002.1
20260505020615 21 240 0.0 0.0 0.00 0.00 0.00 58 1002.1
20260505020114 21 240 0.0 0.0 0.00 0.00 0.00 58 1002.0
20260505015613 21 240 0.0 0.0 0.00 0.00 0.00 58 1001.9
20260505015112 22 240 0.0 0.0 0.00 0.00 0.00 56 1001.9
20260505014611 22 240 0.0 0.0 0.00 0.00 0.00 56 1001.8
20260505014110 22 240 0.0 0.0 0.00 0.00 0.00 56 1001.7
20260505013609 22 240 0.0 0.0 0.00 0.00 0.00 55 1001.6
20260505013108 22 240 0.0 0.0 0.00 0.00 0.00 54 1001.6
20260505012607 22 240 0.0 0.0 0.00 0.00 0.00 53 1001.6
20260505012106 23 240 0.0 0.0 0.00 0.00 0.00 52 1001.6
20260505011605 23 240 0.0 0.0 0.00 0.00 0.00 52 1001.6
20260505011104 23 240 0.0 0.0 0.00 0.00 0.00 52 1001.5
20260505010603 23 240 0.0 0.0 0.00 0.00 0.00 51 1001.4
20260505005601 24 240 0.0 0.0 0.00 0.00 0.00 50 1001.3
20260505005100 24 240 0.0 0.0 0.00 0.00 0.00 49 1001.2
20260505004559 25 240 0.0 0.0 0.00 0.00 0.00 48 1001.2
20260505004058 25 240 0.0 0.0 0.00 0.00 0.00 47 1001.2
20260505003557 25 240 0.0 0.0 0.00 0.00 0.00 47 1001.0
20260505003056 25 240 0.0 0.0 0.00 0.00 0.00 47 1001.0
20260505002555 25 240 0.0 0.0 0.00 0.00 0.00 47 1001.0
20260505002055 25 240 0.0 0.0 0.00 0.00 0.00 47 1001.0
20260505001553 25 240 0.0 0.0 0.00 0.00 0.00 46 1001.0
20260505001053 25 240 0.0 0.0 0.00 0.00 0.00 46 1001.0
20260505000552 25 240 0.0 0.0 0.00 0.00 0.00 45 1001.0
20260505000051 25 240 0.0 0.0 0.00 0.00 0.00 44 1001.0
20260504235549 26 240 0.0 0.0 0.00 0.00 0.00 44 1001.0
20260504235048 26 240 0.0 0.0 0.00 0.00 0.00 43 1001.0
20260504234547 26 240 0.0 0.0 0.00 0.00 0.00 42 1001.0
20260504234046 26 240 0.0 0.0 0.00 0.00 0.00 43 1001.0
20260504233545 26 240 0.0 4.8 0.00 0.00 0.00 41 1001.2
20260504233044 26 293 0.0 0.0 0.00 0.00 0.00 41 1001.2
20260504232543 26 293 0.0 0.0 0.00 0.00 0.00 41 1001.0
20260504232042 26 293 0.0 0.0 0.00 0.00 0.00 40 1001.2
20260504231541 26 293 0.0 1.6 0.00 0.00 0.00 40 1001.0
20260504231041 26 210 12.9 12.9 0.00 0.00 0.00 40 1001.2
20260504230539 26 227 0.0 8.0 0.00 0.00 0.00 39 1001.2
20260504230038 26 225 0.0 0.0 0.00 0.00 0.00 40 1001.2
20260504225537 26 225 0.0 11.3 0.00 0.00 0.00 39 1001.2
20260504225037 26 196 0.0 0.0 0.00 0.00 0.00 39 1001.2
20260504224535 26 196 0.0 4.8 0.00 0.00 0.00 40 1001.0
20260504224034 26 241 0.0 3.2 0.00 0.00 0.00 40 1001.2
20260504223533 26 171 0.0 0.0 0.00 0.00 0.00 40 1001.2
20260504223032 26 171 0.0 3.2 0.00 0.00 0.00 42 1001.2
20260504222531 26 212 0.0 3.2 0.00 0.00 0.00 42 1001.2
20260504222030 26 220 0.0 0.0 0.00 0.00 0.00 43 1001.3
20260504221529 26 220 0.0 8.0 0.00 0.00 0.00 42 1001.4
20260504221028 26 239 0.0 9.7 0.00 0.00 0.00 42 1001.3
20260504220528 26 191 0.0 9.7 0.00 0.00 0.00 41 1001.3
20260504220026 26 254 0.0 20.9 0.00 0.00 0.00 44 1001.4
20260504215525 26 217 4.8 12.9 0.00 0.00 0.00 43 1001.4
20260504215024 26 240 4.8 16.1 0.00 0.00 0.00 42 1001.5
20260504214701 26 270 8.0 14.5 0.00 0.00 0.00 42 1001.5
20260504214523 26 270 8.0 14.5 0.00 0.00 0.00 42 1001.5
20260504214400 26 171 6.4 19.3 0.00 0.00 0.00 41 1001.5
20260504214022 26 270 1.6 16.1 0.00 0.00 0.00 42 1001.5
20260504213521 26 171 6.4 19.3 0.00 0.00 0.00 41 1001.5
20260504213020 26 206 4.8 4.8 0.00 0.00 0.00 43 1001.5
20260504212519 26 264 0.0 12.9 0.00 0.00 0.00 42 1001.5
20260504212018 26 177 4.8 19.3 0.00 0.00 0.00 41 1001.5
20260504211517 26 212 3.2 17.7 0.00 0.00 0.00 39 1001.5
20260504211016 27 232 1.6 32.2 0.00 0.00 0.00 41 1001.4
20260504210515 27 213 9.7 20.9 0.00 0.00 0.00 39 1001.4
20260504210014 27 164 1.6 22.5 0.00 0.00 0.00 38 1001.5
20260504205513 27 216 0.0 9.7 0.00 0.00 0.00 35 1001.6
20260504205012 27 270 0.0 0.0 0.00 0.00 0.00 38 1001.6
20260504204511 27 270 0.0 8.0 0.00 0.00 0.00 35 1001.7
20260504204010 27 260 3.2 12.9 0.00 0.00 0.00 33 1001.7
20260504203509 27 225 0.0 9.7 0.00 0.00 0.00 35 1001.9
20260504203008 27 213 0.0 11.3 0.00 0.00 0.00 35 1001.8
20260504202507 27 104 0.0 11.3 0.00 0.00 0.00 38 1001.8
20260504202006 27 180 0.0 8.0 0.00 0.00 0.00 39 1001.9
20260504201505 27 227 0.0 11.3 0.00 0.00 0.00 40 1001.9
20260504201004 27 191 0.0 16.1 0.00 0.00 0.00 38 1001.9
20260504200503 27 187 11.3 17.7 0.00 0.00 0.00 36 1001.9
20260504200002 27 206 3.2 3.2 0.00 0.00 0.00 36 1002.0
20260504195502 27 188 1.6 9.7 0.00 0.00 0.00 36 1002.0
20260504195000 27 184 0.0 11.3 0.00 0.00 0.00 38 1002.0
20260504194459 27 230 0.0 14.5 0.00 0.00 0.00 37 1002.0
20260504193958 27 253 4.8 14.5 0.00 0.00 0.00 38 1002.0
20260504193457 27 167 0.0 9.7 0.00 0.00 0.00 38 1002.0
20260504192957 27 253 0.0 9.7 0.00 0.00 0.00 38 1002.0
20260504192455 27 195 0.0 24.1 0.00 0.00 0.00 39 1002.0
20260504191954 26 323 3.2 12.9 0.00 0.00 0.00 40 1002.1
20260504191453 26 191 0.0 6.4 0.00 0.00 0.00 41 1002.1
20260504190952 26 157 0.0 4.8 0.00 0.00 0.00 41 1002.2
20260504190451 26 232 4.8 12.9 0.00 0.00 0.00 39 1002.3
20260504185950 26 264 4.8 16.1 0.00 0.00 0.00 39 1002.3
20260504185449 26 229 3.2 16.1 0.00 0.00 0.00 42 1002.3
20260504184948 26 181 0.0 16.1 0.00 0.00 0.00 40 1002.3
20260504184447 26 217 0.0 12.9 0.00 0.00 0.00 42 1002.3
20260504183946 26 253 0.0 14.5 0.00 0.00 0.00 42 1002.3
20260504183446 26 227 6.4 17.7 0.00 0.00 0.00 39 1002.4
20260504182945 26 244 0.0 1.6 0.00 0.00 0.00 42 1002.4
20260504182443 25 274 3.2 6.4 0.00 0.00 0.00 42 1002.4
20260504181942 25 191 0.0 14.5 0.00 0.00 0.00 42 1002.5
20260504181441 25 185 3.2 9.7 0.00 0.00 0.00 41 1002.5
20260504180940 25 274 0.0 14.5 0.00 0.00 0.00 41 1002.5
20260504180439 25 165 6.4 17.7 0.00 0.00 0.00 43 1002.5
20260504175939 25 268 0.0 14.5 0.00 0.00 0.00 41 1002.7
20260504175437 25 270 0.0 9.7 0.00 0.00 0.00 43 1002.7
20260504174936 25 217 0.0 14.5 0.00 0.00 0.00 43 1002.8
20260504174435 25 232 0.0 12.9 0.00 0.00 0.00 43 1002.7
20260504173934 25 180 12.9 19.3 0.00 0.00 0.00 43 1002.7
20260504173433 25 217 4.8 17.7 0.00 0.00 0.00 40 1002.8
20260504172933 25 147 0.0 19.3 0.00 0.00 0.00 44 1002.9
20260504172432 25 227 6.4 11.3 0.00 0.00 0.00 44 1002.8
20260504171931 25 185 19.3 20.9 0.00 0.00 0.00 45 1002.9
20260504171430 25 215 0.0 11.3 0.00 0.00 0.00 43 1003.0
20260504170929 25 262 4.8 17.7 0.00 0.00 0.00 41 1003.0
20260504170427 25 168 0.0 6.4 0.00 0.00 0.00 43 1003.0
20260504160415 22 226 0.0 20.9 0.00 0.00 0.00 46 1003.1
20260504150904 21 205 16.1 24.1 0.00 0.00 0.00 51 1003.2
20260504150403 21 251 3.2 11.3 0.00 0.00 0.00 52 1003.2
20260504140853 19 265 8.0 11.3 0.00 0.00 0.00 55 1003.5
20260504140351 19 243 8.0 16.1 0.00 0.00 0.00 54 1003.5
20260504130340 18 230 4.8 8.0 0.00 0.00 0.00 54 1003.2
20260504110315 17 192 11.3 14.5 0.00 0.00 0.00 57 1003.5
20260504100303 17 172 1.6 3.2 0.00 0.00 0.00 54 1004.4
20260504081742 17 216 3.2 9.7 0.00 0.00 0.00 56 1004.6
20260504081241 17 203 4.8 4.8 0.00 0.00 0.00 56 1004.7
20260504080740 17 226 0.0 0.0 0.00 0.00 0.00 56 1004.8
20260504080239 17 226 0.0 4.8 0.00 0.00 0.00 56 1004.8
20260504070227 18 233 1.6 9.7 0.00 0.00 0.00 51 1005.7
20260504060215 17 240 0.0 3.2 0.00 0.00 0.00 56 1006.5
20260504050704 17 189 0.0 0.0 0.00 0.00 0.00 62 1007.3
20260504050203 17 189 0.0 0.0 0.00 0.00 0.00 61 1007.3
20260504045702 18 189 0.0 0.0 0.00 0.00 0.00 60 1007.3
20260504045201 18 189 0.0 0.0 0.00 0.00 0.00 60 1007.2
20260504044700 18 189 0.0 0.0 0.00 0.00 0.00 60 1007.2
20260504044159 18 189 0.0 0.0 0.00 0.00 0.00 59 1007.3
20260504043658 18 189 0.0 0.0 0.00 0.00 0.00 57 1007.3
20260504043157 18 189 0.0 0.0 0.00 0.00 0.00 59 1007.3
20260504042656 18 189 0.0 0.0 0.00 0.00 0.00 59 1007.4
20260504042155 18 189 0.0 0.0 0.00 0.00 0.00 58 1007.4